Meteo pe oră la Bolshie Rogi

Astăzi, 6 Mai, Joi

Timp Temperatura Precipitaţii Vânt Presiune Umiditate
00:00 +11°C° 0.1 mm 6 m/s 741 mmHg 77%
01:00 +11°C° 0.1 mm 7 m/s 740 mmHg 80%
02:00 +10°C° 0.1 mm 7 m/s 740 mmHg 82%
03:00 +10°C° 0.1 mm 8 m/s 739 mmHg 82%
04:00 +9°C° 0.1 mm 8 m/s 739 mmHg 82%
05:00 +9°C° 0.1 mm 8 m/s 738 mmHg 82%
06:00 +9°C° 0.6 mm 8 m/s 738 mmHg 85%
07:00 +9°C° 0.6 mm 8 m/s 738 mmHg 88%
08:00 +9°C° 0.6 mm 8 m/s 738 mmHg 92%
09:00 +7°C° 0.5 mm 8 m/s 739 mmHg 90%
10:00 +6°C° 0.5 mm 7 m/s 741 mmHg 89%
11:00 +7°C° 0.5 mm 6 m/s 742 mmHg 87%
12:00 +8°C° 0.3 mm 7 m/s 742 mmHg 77%
13:00 +9°C° 0.3 mm 7 m/s 743 mmHg 68%
14:00 +10°C° 0.3 mm 8 m/s 743 mmHg 58%
15:00 +10°C° 0 mm 7 m/s 744 mmHg 55%
16:00 +10°C° 0 mm 7 m/s 744 mmHg 53%
17:00 +10°C° 0 mm 7 m/s 745 mmHg 50%
18:00 +9°C° 0 mm 6 m/s 745 mmHg 53%
19:00 +8°C° 0 mm 5 m/s 746 mmHg 55%
20:00 +6°C° 0 mm 4 m/s 746 mmHg 58%
21:00 +5°C° 0 mm 4 m/s 747 mmHg 62%
22:00 +5°C° 0 mm 3 m/s 747 mmHg 66%
23:00 +4°C° 0 mm 3 m/s 747 mmHg 70%

Mâine, 7 Mai, Vineri

Timp Temperatura Precipitaţii Vânt Presiune Umiditate
00:00 +4°C° 0 mm 3 m/s 747 mmHg 69%
01:00 +4°C° 0 mm 3 m/s 747 mmHg 69%
02:00 +4°C° 0 mm 3 m/s 747 mmHg 68%
03:00 +4°C° 0.1 mm 4 m/s 746 mmHg 71%
04:00 +5°C° 0.1 mm 5 m/s 746 mmHg 73%
05:00 +6°C° 0.1 mm 5 m/s 746 mmHg 76%
06:00 +5°C° 0.7 mm 6 m/s 746 mmHg 81%
07:00 +5°C° 0.7 mm 6 m/s 746 mmHg 86%
08:00 +5°C° 0.7 mm 7 m/s 745 mmHg 92%
09:00 +5°C° 0.1 mm 7 m/s 745 mmHg 91%
10:00 +7°C° 0.1 mm 6 m/s 745 mmHg 89%
11:00 +8°C° 0.1 mm 6 m/s 745 mmHg 88%
12:00 +9°C° 0.2 mm 6 m/s 744 mmHg 83%
13:00 +11°C° 0.2 mm 6 m/s 744 mmHg 79%
14:00 +13°C° 0.2 mm 5 m/s 744 mmHg 74%
15:00 +13°C° 0.5 mm 5 m/s 743 mmHg 76%
16:00 +13°C° 0.5 mm 4 m/s 743 mmHg 77%
17:00 +13°C° 0.5 mm 4 m/s 743 mmHg 79%
18:00 +11°C° 0.1 mm 4 m/s 744 mmHg 83%
19:00 +10°C° 0.1 mm 4 m/s 744 mmHg 86%
20:00 +8°C° 0.1 mm 4 m/s 744 mmHg 90%
21:00 +7°C° 0.2 mm 4 m/s 745 mmHg 91%
22:00 +6°C° 0.2 mm 4 m/s 745 mmHg 92%
23:00 +6°C° 0.2 mm 4 m/s 746 mmHg 92%

Poimâine, 8 Mai, Sâmbătă

Timp Temperatura Precipitaţii Vânt Presiune Umiditate
00:00 +5°C° 0 mm 4 m/s 747 mmHg 94%
01:00 +4°C° 0 mm 3 m/s 747 mmHg 95%
02:00 +3°C° 0 mm 3 m/s 748 mmHg 96%
03:00 +2°C° 0 mm 3 m/s 748 mmHg 95%
04:00 +2°C° 0 mm 3 m/s 749 mmHg 95%
05:00 +3°C° 0 mm 2 m/s 749 mmHg 94%
06:00 +3°C° 0 mm 3 m/s 750 mmHg 88%
07:00 +5°C° 0 mm 3 m/s 750 mmHg 81%
08:00 +8°C° 0 mm 3 m/s 751 mmHg 74%
09:00 +9°C° 0 mm 3 m/s 751 mmHg 66%
10:00 +10°C° 0 mm 3 m/s 751 mmHg 58%
11:00 +11°C° 0 mm 3 m/s 751 mmHg 50%
12:00 +12°C° 0 mm 3 m/s 751 mmHg 48%
13:00 +13°C° 0 mm 3 m/s 751 mmHg 46%
14:00 +13°C° 0 mm 3 m/s 751 mmHg 43%
15:00 +13°C° 0 mm 3 m/s 751 mmHg 48%
16:00 +13°C° 0 mm 3 m/s 750 mmHg 52%
17:00 +14°C° 0 mm 2 m/s 750 mmHg 57%
18:00 +13°C° 0 mm 2 m/s 750 mmHg 62%
19:00 +12°C° 0 mm 2 m/s 750 mmHg 67%
20:00 +10°C° 0 mm 2 m/s 749 mmHg 71%
21:00 +10°C° 0.3 mm 3 m/s 749 mmHg 77%
22:00 +8°C° 0.3 mm 4 m/s 748 mmHg 83%
23:00 +8°C° 0.3 mm 4 m/s 748 mmHg 88%

9 Mai, Duminică

Timp Temperatura Precipitaţii Vânt Presiune Umiditate
00:00 +10°C° 0.1 mm 4 m/s 748 mmHg 89%
01:00 +11°C° 0.1 mm 4 m/s 747 mmHg 89%
02:00 +10°C° 0.1 mm 5 m/s 747 mmHg 89%

10 Mai, Luni

Timp Temperatura Precipitaţii Vânt Presiune Umiditate

11 Mai, Marţi

Timp Temperatura Precipitaţii Vânt Presiune Umiditate
Arată mai mult

Formular de consimțământ

Meteoprog și furnizorii noștri de servicii pot stoca și accesa date personale, precum cookies, identificatori de dispozitiv sau alte tehnologii similare pe dispozitivul dumneavoastră și procesa astfel de date pentru a personaliza conținutul și reclamele, dar și pentru a oferi caracteristici de social media și pentru a analiza traficul.

  • Stocarea și/sau accesarea informațiilor pe dispozitivul dumneavoastră

    Cookies, identificatori de dispozitiv sau alte informații pot fi stocate sau accesate pe dispozitiv în scopurile indicate mai sus.

  • Reclame și conținut personalizat, evaluarea reclamelor și a conținutului, informații despre audiențe și dezvoltarea produselor

    Reclamele și conținutul pot fi personalizate pe baza unui profil. Pot fi adăugate date suplimentare pentru a personaliza mai bine reclamele și conținutul. Performanța reclamelor și conținutului poate fi măsurată. Pot fi obținute informații despre utilizatorii care au văzut reclamele și conținutul. Aceste date pot fi utilizate pentru a dezvolta sau îmbunătăți experiența utilizatorilor, sistemele și software-ul.

Dând clic pe ‘Sunt de acord’, permiteți utilizarea cookie-urilor menționate, a identificatorilor de dispozitiv, balizelor web sau altor tehnologii similare. Setările pot fi modificate din browser-ul dispozitivului dumneavoastră.

În anumite scopuri, interesele legitime pot prima asupra consimțământului. Puteți citi mai multe informații în acest sens în Politica privind Confidențialitatea Datelor și Cookie.